Weather observations for the past three days for
Florence Municipal Airport
Metric (Imperial)
Date Time (pdt) Wind (kph) Vis. (km) Weather Sky Cond. Temperature (ºC) Relative Humidity Wind Chill (°C) Heat Index (°C) Pressure Precipitation (cm)
Air Dwpt 6 hour altimeter (cm) sea level (mb) 1 hr 3 hr 6 hr
Max. Min.
07 04:35 N 7 16.09 Overcast OVC017 12 10 88% 76.58 0.0
07 04:15 Calm 16.09 Overcast OVC017 12 10 88% 76.58 0.0
07 03:55 Calm 16.09 Overcast OVC017 12 10 88% 76.58 0.0
07 03:35 Calm 16.09 Overcast OVC017 12 10 88% 76.58 0.0
07 03:15 Calm 16.09 Overcast OVC017 12 10 88% 76.58 0.0
07 02:55 Calm 16.09 Overcast OVC016 12 10 88% 76.61 0.0
07 02:35 Calm 16.09 Overcast OVC016 12 10 88% 76.61 0.0
07 02:15 Calm 16.09 Overcast OVC016 12 10 88% 76.63 0.0
07 01:55 Calm 16.09 Overcast OVC015 12 10 88% 76.63 0.0
07 01:35 Calm 16.09 Overcast OVC016 12 10 88% 76.66 0.0
07 01:15 Calm 16.09 Overcast OVC017 12 10 88% 76.66 0.0
07 00:55 Calm 16.09 Overcast OVC017 12 10 88% 76.66 0.0
07 00:35 Calm 16.09 Overcast OVC018 12 10 88% 76.66 0.0
07 00:15 Vrbl 6 16.09 Overcast OVC018 13 10 82% 76.66 0.0
06 23:55 Calm 16.09 Overcast OVC018 12 11 94% 76.66 0.0
06 23:35 Calm 16.09 Overcast OVC019 13 11 88% 76.66 0.0
06 23:15 NW 6 16.09 Overcast OVC019 13 10 82% 76.68 0.0
06 22:55 N 11 16.09 Overcast OVC018 13 11 88% 76.68 0.0
06 22:35 NW 7 16.09 Overcast OVC017 12 10 88% 76.68 0.0
06 22:15 NW 7 16.09 Overcast OVC016 13 10 82% 76.71 0.0
06 21:55 N 9 16.09 Overcast OVC018 12 11 94% 76.71 0.0
06 21:35 NW 9 16.09 Overcast OVC019 12 11 94% 76.68 0.0
06 21:15 N 7 16.09 Overcast OVC019 12 11 94% 76.71 0.0
06 20:55 NW 7 16.09 Overcast OVC019 12 11 94% 76.68 0.0
06 20:35 NW 6 16.09 Overcast OVC019 12 11 94% 76.68 0.0
06 20:15 NW 7 14.48 Overcast OVC019 12 11 94% 76.68 0.0
06 19:55 NW 7 16.09 Overcast OVC019 13 11 88% 76.68 0.0
06 19:35 NW 7 16.09 Overcast OVC021 13 11 88% 76.68 0.0
06 19:15 NW 9 14.48 Overcast OVC021 13 11 88% 76.68 0.0
06 18:55 NW 9 16.09 Overcast OVC020 13 11 88% 76.68 0.0
06 18:35 NW 9 16.09 Overcast OVC020 13 11 88% 76.71 0.0
06 18:15 NW 7 16.09 Overcast OVC020 13 11 88% 76.71 0.0
06 17:55 NW 11 16.09 Overcast OVC021 13 11 88% 76.71 0.0
06 17:35 NW 13 16.09 Overcast OVC022 13 11 88% 76.71 0.0
06 17:15 NW 13 16.09 Overcast OVC022 13 11 88% 76.73 0.0
06 16:55 NW 13 16.09 Overcast OVC022 13 11 88% 76.73 0.0
06 16:35 NW 13 16.09 Overcast OVC021 14 11 82% 76.73 0.0
06 16:15 NW 7 16.09 Overcast OVC020 13 11 88% 76.73 0.0
06 15:55 NW 11 16.09 Overcast OVC018 14 11 82% 76.73 0.0
06 15:35 NW 11 16.09 Overcast OVC017 13 11 88% 76.73 0.0
06 15:15 NW 13 16.09 Overcast OVC018 13 11 88% 76.76 0.0
06 14:55 NW 11 16.09 Overcast BKN013 OVC018 13 11 88% 76.76 0.0
06 14:35 W 9 16.09 Overcast OVC013 13 11 88% 76.76 0.0
06 14:15 Vrbl 7 16.09 Overcast OVC012 13 11 88% 76.76 0.0
06 13:55 W 7 16.09 Overcast OVC013 13 11 88% 76.76 0.0
06 13:35 Vrbl 9 G 19 16.09 Overcast OVC014 13 11 88% 76.73 0.0
06 13:15 Vrbl 7 16.09 Overcast OVC015 13 11 88% 76.73 0.0
06 12:55 Vrbl 9 16.09 Overcast OVC016 13 11 88% 76.73 0.0
06 12:35 W 7 16.09 Overcast OVC015 13 11 88% 76.73 0.0
06 12:15 W 7 16.09 Overcast OVC015 13 11 88% 76.73 0.0
06 11:55 W 9 16.09 Overcast OVC014 13 10 82% 76.73 0.0
06 11:35 W 11 16.09 Overcast OVC013 13 11 88% 76.71 0.0
06 11:15 W 9 16.09 Overcast OVC012 13 11 88% 76.71 0.0
06 10:55 Vrbl 6 16.09 Overcast OVC012 12 11 94% 76.71 0.0
06 10:35 NW 7 11.27 Overcast OVC012 12 11 94% 76.71 0.0
06 10:15 Vrbl 9 14.48 Overcast OVC011 12 11 94% 76.71 0.0
06 09:55 Vrbl 6 16.09 Overcast OVC011 12 11 94% 76.68 0.0
06 09:35 S 6 16.09 Overcast OVC011 12 11 94% 76.66 0.0
06 09:15 Calm 16.09 Overcast OVC011 12 11 94% 76.63 0.0
06 08:55 S 7 16.09 Overcast OVC011 12 11 94% 76.63 0.0
06 08:35 Calm 16.09 Overcast OVC011 12 11 94% 76.63 0.0
06 08:15 Calm 16.09 Overcast OVC011 12 10 88% 76.63 0.0
06 07:55 Calm 16.09 Overcast OVC012 12 11 94% 76.63 0.0
06 07:35 Calm 16.09 Overcast OVC012 12 10 88% 76.63 0.0
06 07:15 Calm 16.09 Overcast OVC012 12 10 88% 76.61 0.0
06 06:55 N 6 16.09 Overcast OVC012 12 10 88% 76.61 0.0
06 06:35 Calm 16.09 Overcast OVC013 12 10 88% 76.58 0.0
06 06:15 N 6 16.09 Overcast OVC013 12 10 88% 76.58 0.0
06 05:55 N 6 16.09 Overcast OVC013 12 10 88% 76.56 0.0
06 05:35 Calm 16.09 Overcast OVC013 12 11 94% 76.56 0.0
06 05:15 Calm 16.09 Overcast OVC013 12 11 94% 76.56 0.0
06 04:55 Calm 16.09 Overcast OVC013 12 11 94% 76.56 0.0
06 04:35 Calm 16.09 Overcast OVC013 12 10 88% 76.53 0.0
06 04:15 NW 7 16.09 Overcast OVC013 12 10 88% 76.53 0.0
06 03:55 Vrbl 7 16.09 Overcast OVC014 12 11 94% 76.5 0.0
06 03:35 Calm 16.09 Overcast OVC014 12 10 88% 76.5 0.0
06 03:15 Vrbl 6 16.09 Overcast OVC014 12 10 88% 76.48 0.0
06 02:55 Calm 16.09 Overcast OVC014 13 10 82% 76.48 0.0
06 02:35 Calm 16.09 Overcast OVC015 12 11 94% 76.48 0.0
06 02:15 Calm 16.09 Overcast OVC015 12 12 100% 76.45 0.0
06 01:55 Calm 16.09 Overcast OVC016 12 11 94% 76.45 0.0
06 01:35 Calm 16.09 Overcast OVC015 12 11 94% 76.45 0.0
06 01:15 Calm 16.09 Overcast OVC016 12 12 100% 76.43 0.0
06 00:55 Calm 16.09 Overcast OVC016 12 12 100% 76.43 0.0
06 00:35 Calm 16.09 Overcast OVC015 12 12 100% 76.4 0.0
06 00:15 Calm 16.09 Overcast OVC015 12 11 94% 76.4 0.0
05 23:55 Calm 16.09 Overcast OVC015 11 11 100% 76.4 0.0
05 23:35 Calm 16.09 Overcast OVC016 11 11 100% 76.4 0.0
05 23:15 Calm 16.09 Overcast OVC015 12 11 94% 76.38 0.0
05 22:55 Calm 16.09 Overcast OVC015 12 11 94% 76.38 0.0
05 22:35 Calm 16.09 Overcast OVC015 12 12 100% 76.38 0.0
05 22:15 Calm 16.09 Mostly Cloudy BKN015 12 11 94% 76.38 0.0
05 21:55 Calm 16.09 A Few Clouds FEW016 12 12 100% 76.35 0.0
05 21:35 NW 6 16.09 Fair CLR 12 12 100% 76.35 0.0
05 21:15 Calm 16.09 Fair CLR 12 12 100% 76.33 0.0
05 20:55 NW 6 11.27 Fair CLR 13 12 94% 76.3 0.0
05 20:35 NW 7 16.09 Fair CLR 13 12 94% 76.3 0.0
05 20:15 NW 11 16.09 Fair CLR 13 12 94% 76.28 0.0
05 19:55 NW 11 16.09 Fair CLR 13 12 94% 76.28 0.0
05 19:35 NW 13 16.09 Fair CLR 14 12 88% 76.25 0.0
05 19:15 NW 13 16.09 Fair CLR 14 12 88% 76.25 0.0
05 18:55 NW 15 16.09 Fair CLR 14 12 88% 76.25 0.0
05 18:35 NW 13 16.09 Fair CLR 14 11 82% 76.25 0.0
05 18:15 NW 15 16.09 Fair CLR 15 12 82% 76.25 0.0
05 17:55 NW 19 16.09 Fair CLR 15 11 77% 76.25 0.0
05 17:35 NW 15 16.09 Fair CLR 15 11 77% 76.25 0.0
05 17:15 NW 19 16.09 Fair CLR 15 11 77% 76.25 0.0
05 16:55 NW 17 16.09 Fair CLR 15 11 77% 76.25 0.0
05 16:35 NW 15 16.09 Fair CLR 15 11 77% 76.25 0.0
05 16:15 NW 19 16.09 Fair CLR 15 12 82% 76.25 0.0
05 15:55 NW 17 16.09 Fair CLR 15 12 82% 76.25 0.0
05 15:35 NW 17 16.09 Fair CLR 15 11 77% 76.25 0.0
05 15:15 NW 15 16.09 Fair CLR 15 11 77% 76.28 0.0
05 14:55 NW 17 16.09 A Few Clouds FEW026 15 12 82% 76.28 0.0
05 14:35 NW 15 16.09 Mostly Cloudy BKN026 15 12 82% 76.28 0.0
05 14:15 NW 13 16.09 Overcast OVC026 15 12 82% 76.28 0.0
05 13:55 NW 15 16.09 Overcast OVC026 15 12 82% 76.28 0.0
05 13:35 NW 11 16.09 Overcast OVC023 14 12 88% 76.3 0.0
05 13:15 NW 13 16.09 Overcast OVC022 14 12 88% 76.3 0.0
05 12:55 W 9 16.09 Overcast OVC023 14 12 88% 76.3 0.0
05 12:35 W 11 16.09 Overcast OVC024 15 11 77% 76.28 0.0
05 12:15 Vrbl 9 16.09 Overcast OVC023 14 11 82% 76.28 0.0
05 11:55 W 7 16.09 Overcast OVC023 14 12 88% 76.28 0.0
05 11:35 Vrbl 9 16.09 Overcast OVC024 14 12 88% 76.28 0.0
05 11:15 W 11 16.09 Overcast OVC024 14 12 88% 76.28 0.0
05 10:55 W 7 14.48 Overcast OVC023 13 12 94% 76.28 0.0
05 10:35 Vrbl 7 16.09 Overcast OVC022 13 12 94% 76.25 0.0
05 10:15 W 9 16.09 Overcast OVC022 14 12 88% 76.25 0.0
05 09:55 W 9 16.09 Overcast OVC021 13 12 94% 76.25 0.0
05 09:35 W 6 16.09 Overcast FEW012 OVC020 13 12 94% 76.23 0.0
05 09:15 Calm 14.48 Overcast OVC019 14 12 88% 76.23 0.0
05 08:55 Calm 16.09 Overcast OVC020 14 11 82% 76.23 0.0
05 08:35 Calm 16.09 Overcast OVC022 14 11 82% 76.25 0.0
05 08:15 Calm 16.09 Overcast OVC022 13 11 88% 76.23 0.0
05 07:55 Calm 16.09 Overcast OVC022 13 11 88% 76.23 0.0
05 07:35 Calm 11.27 Overcast OVC021 13 12 94% 76.23 0.0
05 07:15 Calm 16.09 Overcast OVC022 13 11 88% 76.2 0.0
05 06:55 Calm 16.09 Overcast OVC021 13 12 94% 76.2 0.0
05 06:35 Calm 16.09 Overcast OVC022 12 12 100% 76.17 0.0
05 06:15 Calm 16.09 Overcast OVC023 12 12 100% 76.17 0.0
05 05:55 Calm 16.09 Overcast OVC020 12 12 100% 76.17 0.0
05 05:35 Calm 14.48 Overcast SCT010 BKN017 OVC022 12 12 100% 76.17 0.0
05 05:15 S 7 8.05 Unknown Precip Fog/Mist BKN010 OVC016 12 12 100% 76.17 0.0
05 04:55 Calm 9.66 Fog/Mist FEW011 OVC019 12 12 100% 76.15 0.0
05 04:35 Calm 12.87 Overcast SCT011 OVC019 12 12 100% 76.15 0.0
05 04:15 Calm 6.44 Fog/Mist SCT007 BKN010 OVC018 12 12 100% 76.15 0.0
05 03:55 Calm 4.83 Unknown Precip Fog/Mist OVC009 12 12 100% 76.15 0.0
05 03:35 Vrbl 6 8.05 Unknown Precip Fog/Mist OVC012 13 12 94% 76.15 0.0
05 03:15 S 11 14.48 Overcast OVC015 13 12 94% 76.12 0.0
05 02:55 S 7 16.09 Overcast FEW011 OVC018 13 12 94% 76.15 0.0
05 02:35 Calm 16.09 Overcast OVC015 13 12 94% 76.12 0.0
05 02:15 S 9 16.09 Overcast OVC017 13 12 94% 76.12 0.0
05 01:55 Calm 16.09 Overcast OVC018 13 12 94% 76.12 0.0
05 01:35 Calm 16.09 Overcast OVC020 13 12 94% 76.12 0.0
05 01:15 Vrbl 6 16.09 Overcast OVC020 13 12 94% 76.15 0.0
05 00:55 S 7 16.09 Overcast OVC018 13 12 94% 76.15 0.0
05 00:35 S 9 16.09 Overcast OVC017 13 12 94% 76.15 0.0
05 00:15 S 6 16.09 Overcast FEW010 OVC018 13 12 94% 76.15 0.0
04 23:55 Calm 16.09 Overcast FEW010 OVC016 13 12 94% 76.15 0.0
04 23:35 Calm 16.09 Overcast OVC017 13 12 94% 76.15 0.0
04 23:15 S 7 16.09 Overcast OVC017 13 12 94% 76.15 0.0
04 22:55 S 9 16.09 Overcast FEW008 OVC017 13 12 94% 76.15 0.0
04 22:35 SW 7 14.48 Overcast FEW009 OVC014 13 12 94% 76.15 0.0
04 22:15 S 9 G 20 16.09 Overcast FEW010 OVC016 13 12 94% 76.15 0.0
04 21:55 S 9 16.09 Overcast OVC016 13 12 94% 76.15 0.0
04 21:35 S 7 16.09 Overcast OVC015 13 12 94% 76.12 0.0
04 21:15 S 7 16.09 Overcast OVC015 13 12 94% 76.12 0.0
04 20:55 S 9 16.09 Overcast FEW010 OVC016 13 12 94% 76.12 0.0
04 20:35 SW 7 16.09 Overcast FEW010 OVC016 13 12 94% 76.1 0.0
04 20:15 S 6 16.09 Overcast FEW010 OVC016 13 12 94% 76.1 0.0
04 19:55 S 9 16.09 Overcast OVC017 13 12 94% 76.07 0.0
04 19:35 SW 7 16.09 Overcast OVC015 14 12 88% 76.07 0.0
04 19:15 SW 7 16.09 Overcast FEW011 OVC017 14 12 88% 76.07 0.0
04 18:55 W 9 16.09 Overcast OVC018 14 12 88% 76.07 0.0
04 18:35 Vrbl 7 16.09 Overcast OVC019 14 12 88% 76.07 0.0
04 18:15 Vrbl 6 16.09 Overcast OVC018 14 12 88% 76.1 0.0
04 17:55 Vrbl 11 G 20 16.09 Overcast OVC017 14 12 88% 76.1 0.0
04 17:35 Vrbl 11 16.09 Overcast FEW013 BKN019 OVC029 14 12 88% 76.1 0.0
04 17:15 SW 13 G 24 16.09 Overcast FEW013 BKN020 OVC029 15 12 82% 76.1 0.0
04 16:55 SW 13 14.48 Overcast FEW013 BKN019 OVC027 15 12 82% 76.12 0.0
04 16:35 SW 15 G 26 11.27 Overcast SCT012 SCT019 OVC026 15 12 82% 76.12 0.0
04 16:15 SW 13 14.48 Overcast FEW012 SCT019 OVC027 15 12 82% 76.12 0.0
04 15:55 SW 13 14.48 Overcast FEW017 OVC027 15 12 82% 76.12 0.0
04 15:35 SW 13 16.09 Overcast FEW014 OVC026 15 12 82% 76.15 0.0
04 15:15 Vrbl 11 G 20 14.48 Overcast FEW014 OVC025 15 12 82% 76.17 0.0
04 14:55 SW 15 G 24 14.48 Light Rain FEW012 BKN022 OVC026 15 12 82% 76.17 0.0
04 14:35 SW 13 14.48 Overcast FEW011 BKN022 OVC026 15 12 82% 76.17 0.0
04 14:15 Vrbl 11 14.48 Overcast SCT009 BKN022 OVC026 15 13 88% 76.17 0.0
04 13:55 SW 15 G 28 16.09 Overcast SCT011 OVC025 14 12 88% 76.17 0.0
04 13:35 SW 17 G 28 16.09 Overcast BKN012 BKN017 OVC028 15 12 82% 76.17 0.0
04 13:15 SW 15 G 26 16.09 Overcast BKN011 BKN021 OVC025 14 12 88% 76.17 0.0
04 12:55 Vrbl 11 G 26 16.09 Overcast BKN012 BKN019 OVC024 15 12 82% 76.15 0.0
04 12:35 SW 15 G 26 16.09 Overcast BKN011 OVC024 15 13 88% 76.15 0.0
04 12:15 SW 15 G 31 16.09 Overcast BKN011 OVC021 15 12 82% 76.15 0.0
04 11:55 SW 17 G 26 16.09 Overcast BKN012 BKN021 OVC028 15 12 82% 76.15 0.0
04 11:35 SW 11 G 26 14.48 Overcast BKN010 BKN015 OVC025 14 12 88% 76.17 0.0
04 11:15 SW 15 G 24 16.09 Overcast SCT009 BKN012 OVC026 14 13 94% 76.15 0.0
04 10:55 SW 15 12.87 Mostly Cloudy BKN006 BKN012 BKN018 14 13 94% 76.15 0.0
04 10:35 S 15 2.82 Unknown Precip Fog/Mist BKN006 OVC009 13 13 100% 76.15 0.0
04 10:15 S 13 3.22 Unknown Precip Fog/Mist BKN008 BKN013 BKN026 13 13 100% 76.15 0.0
04 09:55 S 11 G 20 16.09 Mostly Cloudy BKN010 BKN017 BKN025 13 13 100% 76.12 0.0
04 09:35 Vrbl 11 G 24 16.09 Mostly Cloudy SCT010 BKN016 BKN022 13 12 94% 76.12 0.0
04 09:15 S 17 16.09 Overcast SCT009 BKN016 OVC028 13 13 100% 76.12 0.0
04 08:55 S 13 G 26 16.09 Overcast BKN008 BKN012 OVC022 13 13 100% 76.1 0.0
04 08:35 Vrbl 11 16.09 Overcast SCT006 BKN016 OVC029 12 12 100% 76.1 0.0
04 08:15 S 13 G 22 16.09 Mostly Cloudy BKN006 BKN020 BKN025 12 12 100% 76.1 0.0
04 07:55 S 11 G 22 9.66 Fog/Mist BKN005 BKN010 12 12 100% 76.1 0.0
04 07:35 S 15 2.82 Unknown Precip Fog/Mist BKN005 BKN010 OVC016 12 12 100% 76.1 0.0
04 07:15 S 9 16.09 Overcast SCT006 OVC019 12 12 100% 76.07 0.0
04 06:55 Vrbl 9 12.87 Overcast OVC005 12 12 100% 76.07 0.0
04 06:35 S 9 2.82 Unknown Precip Fog/Mist OVC004 12 12 100% 76.05 0.0
04 06:15 S 13 4.02 Fog/Mist OVC004 12 12 100% 76.02 0.0
04 05:55 S 11 6.44 Fog/Mist OVC005 12 12 100% 76.02 0.0
04 05:35 Vrbl 7 4.02 Unknown Precip Fog/Mist OVC005 12 12 100% 76.02 0.0
04 05:15 S 9 4.83 Fog/Mist OVC004 12 12 100% 76.02 0.0
04 04:55 S 9 4.83 Unknown Precip Fog/Mist OVC004 12 12 100% 76.02 0.0
Date Time (pdt) Wind (kph) Vis. (km) Weather Sky Cond. Air Dwpt Max. Min. Relative Humidity Wind Chill (°C) Heat Index (°C) altimeter (cm) sea level (mb) 1 hr 3 hr 6 hr
6 hour
Temperature (ºC) Pressure Precipitation (cm)